This is the latest recevied weather packets stored in our database for station/object KD9IXX-13. If no packets are shown the sender has not sent any weather packets the latest 10 day(s).
| Time | Temp. | Humidity | Pressure | Rain* | Wind** | Luminosity | Snow |
|---|---|---|---|---|---|---|---|
| 1777821601 | 11.11° C | 72% | 1016.2 hPa | 0 mm | - | 115 W/m² | - |
| 1777821302 | 11.67° C | 69% | 1016.2 hPa | 0 mm | - | 126 W/m² | - |
| 1777821002 | 11.67° C | 66% | 1016.3 hPa | 0 mm | - | 133 W/m² | - |
| 1777820702 | 11.67° C | 65% | 1016.1 hPa | 0 mm | - | 123 W/m² | - |
| 1777820401 | 11.67° C | 64% | 1016.1 hPa | 0 mm | - | 142 W/m² | - |
| 1777820102 | 11.67° C | 64% | 1016 hPa | 0 mm | - | 171 W/m² | - |
| 1777819802 | 11.67° C | 63% | 1016.2 hPa | 0 mm | - | 172 W/m² | - |
| 1777819501 | 12.22° C | 63% | 1016.3 hPa | 0 mm | - | 201 W/m² | - |
| 1777819202 | 12.22° C | 63% | 1016.1 hPa | 0 mm | - | 209 W/m² | - |
| 1777818902 | 12.22° C | 62% | 1016.2 hPa | 0 mm | - | 208 W/m² | - |
| 1777818602 | 12.22° C | 64% | 1016.1 hPa | 0 mm | - | 213 W/m² | - |
| 1777818302 | 11.67° C | 63% | 1016.3 hPa | 0 mm | - | 235 W/m² | - |
| 1777818002 | 11.67° C | 64% | 1016.2 hPa | 0 mm | - | 245 W/m² | - |
| 1777817702 | 11.67° C | 65% | 1016.2 hPa | 0 mm | - | 226 W/m² | - |
| 1777817403 | 11.67° C | 66% | 1016 hPa | 0 mm | - | 246 W/m² | - |
| 1777817102 | 11.11° C | 65% | 1016.5 hPa | 0 mm | - | 205 W/m² | - |
| 1777816802 | 11.11° C | 65% | 1016.7 hPa | 0 mm | - | 182 W/m² | - |
| 1777816502 | 11.11° C | 66% | 1016.6 hPa | 0 mm | - | 197 W/m² | - |
| 1777816202 | 11.11° C | 66% | 1016.6 hPa | 0 mm | - | 185 W/m² | - |
| 1777815902 | 10.56° C | 67% | 1016.8 hPa | 0 mm | - | 170 W/m² | - |
| 1777815602 | 10.56° C | 68% | 1016.6 hPa | 0 mm | - | 146 W/m² | - |
| 1777815302 | 10° C | 68% | 1016.5 hPa | 0 mm | - | 124 W/m² | - |
| 1777815002 | 10° C | 69% | 1016.6 hPa | 0 mm | - | 111 W/m² | - |
| 1777814702 | 10° C | 69% | 1016.6 hPa | 0 mm | - | 111 W/m² | - |
| 1777814402 | 9.44° C | 69% | 1017 hPa | 0 mm | - | 108 W/m² | - |
* Rain latest hour (hover to see other rain measurements)
** Current wind speed in m/s (hover to see current wind gust speed)